{"data":{"norad_id":66496,"epoch":"2026-09-20T12:32:35.282976Z","epoch_age_seconds":87351,"freshness":"FRESH","line1":"1 66496U 25263M   26263.52263059  .00013810  00000+0  51024-3 0  9997","line2":"2 66496  43.0044 330.5956 0002143 290.1511  69.9110 15.27590873 48698","mean_motion":15.27590873,"eccentricity":0.0002143,"inclination_deg":43.0044,"raan_deg":330.5956,"arg_perigee_deg":290.1511,"mean_anomaly_deg":69.911,"bstar":0.00051024,"rev_number":4869,"period_min":94.266077747114,"perigee_km":481.54619335591,"apogee_km":484.48688376254,"semimajor_km":6861.1535385592,"source":"CELESTRAK","updated_at":"2026-09-21T09:00:35.921269Z"}}